OAL117 LGAV-LDZA

Flight info

Callsign OAL117
Flight time 1h 41m
Altitude 36000
Route KRO UG33 NEVRA UT514 TSL UL617 MAKED P20 LONTA UL608 DOLEV DCT TIVNU DCT TEBLI
Aircraft A320/M-SDE3FGHIRWY/LB1

Departure

Time 2026-05-07 13:23
Airport Athens Eleftherios Venizelos International Airport (LGAV)

Arrival

Time 2026-05-07 15:05
Airport Zagreb Franjo Tuđman International Airport (LDZA)
Time Latitude Longitude Altitude Speed Heading
2026-05-07 13:03 37.93836 23.95061 301 ft 0 kts 308°
2026-05-07 13:09 37.93835 23.95062 301 ft 2 kts 308°
2026-05-07 13:09 37.93821 23.95086 302 ft 4 kts 307°
2026-05-07 13:09 37.93806 23.95111 300 ft 4 kts 312°
2026-05-07 13:09 37.93785 23.95126 300 ft 4 kts
2026-05-07 13:10 37.93777 23.95130 302 ft 3 kts 40°
2026-05-07 13:10 37.93780 23.95133 302 ft 0 kts 40°
2026-05-07 13:14 37.93785 23.95140 301 ft 3 kts 49°
2026-05-07 13:14 37.93832 23.95185 303 ft 7 kts 34°
2026-05-07 13:14 37.93863 23.95244 300 ft 9 kts 66°
2026-05-07 13:14 37.93886 23.95331 299 ft 12 kts 84°
2026-05-07 13:15 37.93863 23.95396 301 ft 8 kts 123°
2026-05-07 13:15 37.93859 23.95474 300 ft 10 kts 43°
2026-05-07 13:15 37.93909 23.95538 297 ft 11 kts 37°
2026-05-07 13:15 37.93979 23.95593 299 ft 13 kts 36°
2026-05-07 13:16 37.94054 23.95665 297 ft 14 kts 36°
2026-05-07 13:16 37.94139 23.95740 300 ft 16 kts 34°
2026-05-07 13:16 37.94229 23.95828 297 ft 17 kts 40°
2026-05-07 13:16 37.94329 23.95923 298 ft 19 kts 33°
2026-05-07 13:17 37.94440 23.96020 300 ft 20 kts 38°
2026-05-07 13:17 37.94556 23.96137 300 ft 22 kts 38°
2026-05-07 13:17 37.94682 23.96258 299 ft 23 kts 35°
2026-05-07 13:17 37.94813 23.96385 301 ft 16 kts 38°
2026-05-07 13:18 37.94819 23.96390 301 ft 0 kts 38°
2026-05-07 13:20 37.94821 23.96392 301 ft 2 kts 38°
2026-05-07 13:21 37.94968 23.96530 302 ft 36 kts 36°
2026-05-07 13:21 37.95154 23.96707 305 ft 34 kts 37°
2026-05-07 13:21 37.95304 23.96888 305 ft 24 kts 85°
2026-05-07 13:21 37.95271 23.96949 307 ft 7 kts 130°
2026-05-07 13:22 37.95238 23.97001 309 ft 9 kts 130°
2026-05-07 13:22 37.95174 23.97004 311 ft 0 kts 207°
2026-05-07 13:22 37.95073 23.96909 309 ft 51 kts 217°
2026-05-07 13:22 37.94609 23.96468 294 ft 113 kts 217°
2026-05-07 13:23 37.93844 23.95742 291 ft 159 kts 217°
2026-05-07 13:23 37.92920 23.94853 667 ft 171 kts 215°
2026-05-07 13:23 37.91867 23.94055 1212 ft 180 kts 207°
2026-05-07 13:23 37.90742 23.93313 1877 ft 183 kts 207°
2026-05-07 13:24 37.89608 23.92601 2597 ft 185 kts 205°
2026-05-07 13:24 37.88434 23.91891 3341 ft 189 kts 205°
2026-05-07 13:24 37.87232 23.91191 4046 ft 191 kts 205°
2026-05-07 13:24 37.86003 23.90502 4774 ft 194 kts 204°
2026-05-07 13:25 37.84748 23.89827 5525 ft 198 kts 204°
2026-05-07 13:25 37.83465 23.89163 6245 ft 199 kts 204°
2026-05-07 13:25 37.82176 23.88519 6950 ft 199 kts 203°
2026-05-07 13:25 37.80882 23.87893 7656 ft 199 kts 202°
2026-05-07 13:26 37.79569 23.87304 8280 ft 208 kts 197°
2026-05-07 13:26 37.78028 23.87430 8368 ft 244 kts 156°
2026-05-07 13:26 37.76727 23.88935 8688 ft 269 kts 119°
2026-05-07 13:26 37.76304 23.91314 9068 ft 290 kts 83°
2026-05-07 13:27 37.77015 23.93695 9705 ft 296 kts 51°
2026-05-07 13:27 37.78466 23.95514 10396 ft 301 kts 38°
2026-05-07 13:27 37.80122 23.97297 10648 ft 324 kts 38°
2026-05-07 13:27 37.81901 23.99199 10827 ft 346 kts 38°
2026-05-07 13:28 37.83773 24.01199 11333 ft 356 kts 39°
2026-05-07 13:28 37.85680 24.03234 11973 ft 360 kts 30°
2026-05-07 13:28 37.87998 24.04328 12660 ft 358 kts
2026-05-07 13:28 37.90476 24.04360 13366 ft 357 kts 353°
2026-05-07 13:29 37.92964 24.04192 14062 ft 360 kts 354°
2026-05-07 13:29 37.95478 24.04072 14667 ft 363 kts 355°
2026-05-07 13:29 37.98018 24.03980 15227 ft 367 kts 355°
2026-05-07 13:29 38.00591 24.03899 15784 ft 371 kts 355°
2026-05-07 13:30 38.03192 24.03819 16332 ft 375 kts 355°
2026-05-07 13:30 38.05824 24.03734 16875 ft 380 kts 355°
2026-05-07 13:30 38.08475 24.03643 17091 ft 382 kts 354°
2026-05-07 13:30 38.11138 24.03548 17132 ft 383 kts 354°
2026-05-07 13:31 38.13802 24.03452 17134 ft 383 kts 354°
2026-05-07 13:31 38.16439 24.03357 17130 ft 383 kts 354°
2026-05-07 13:31 38.19108 24.03260 17131 ft 383 kts 354°
2026-05-07 13:31 38.21793 24.03169 17505 ft 387 kts 354°
2026-05-07 13:32 38.24499 24.03075 18138 ft 390 kts 354°
2026-05-07 13:32 38.27229 24.02976 18693 ft 394 kts 354°
2026-05-07 13:32 38.29982 24.02871 19240 ft 397 kts 354°
2026-05-07 13:32 38.32760 24.02764 19817 ft 400 kts 354°
2026-05-07 13:33 38.35554 24.02660 20414 ft 403 kts 354°
2026-05-07 13:33 38.38377 24.02558 20980 ft 406 kts 354°
2026-05-07 13:33 38.41213 24.02458 21515 ft 408 kts 354°
2026-05-07 13:33 38.44025 24.02359 22035 ft 411 kts 354°
2026-05-07 13:34 38.46893 24.02256 22548 ft 413 kts 354°
2026-05-07 13:34 38.52696 24.02033 23520 ft 419 kts 354°
2026-05-07 13:34 38.55619 24.01922 23945 ft 421 kts 354°
2026-05-07 13:35 38.58554 24.01814 24353 ft 422 kts 354°
2026-05-07 13:35 38.61508 24.01705 24731 ft 425 kts 354°
2026-05-07 13:35 38.64472 24.01597 25090 ft 427 kts 354°
2026-05-07 13:35 38.67453 24.01488 25451 ft 429 kts 354°
2026-05-07 13:36 38.70444 24.01378 25814 ft 431 kts 354°
2026-05-07 13:36 38.73452 24.01267 26168 ft 434 kts 354°
2026-05-07 13:36 38.76445 24.01156 26519 ft 436 kts 355°
2026-05-07 13:36 38.79491 24.01044 26870 ft 439 kts 355°
2026-05-07 13:37 38.82547 24.00933 27220 ft 441 kts 355°
2026-05-07 13:37 38.85622 24.00822 27569 ft 443 kts 355°
2026-05-07 13:37 38.88714 24.00710 27911 ft 446 kts 355°
2026-05-07 13:37 38.91822 24.00597 28243 ft 448 kts 355°
2026-05-07 13:38 38.94952 24.00480 28567 ft 451 kts 355°
2026-05-07 13:38 38.98100 24.00361 28897 ft 453 kts 355°
2026-05-07 13:38 39.01246 24.00149 29306 ft 450 kts 349°
2026-05-07 13:38 39.04255 23.99100 29735 ft 445 kts 334°
2026-05-07 13:39 39.07012 23.97313 30178 ft 443 kts 330°
2026-05-07 13:39 39.09738 23.95457 30567 ft 442 kts 329°
2026-05-07 13:39 39.12421 23.93617 30966 ft 441 kts 329°
2026-05-07 13:39 39.15125 23.91757 31376 ft 440 kts 329°
2026-05-07 13:40 39.17827 23.89896 31794 ft 439 kts 329°
2026-05-07 13:40 39.20521 23.88042 32227 ft 438 kts 329°
2026-05-07 13:40 39.23221 23.86184 32642 ft 437 kts 329°
2026-05-07 13:40 39.25898 23.84341 33077 ft 436 kts 329°
2026-05-07 13:41 39.28579 23.82496 33511 ft 436 kts 329°
2026-05-07 13:41 39.31253 23.80657 33922 ft 435 kts 329°
2026-05-07 13:41 39.33921 23.78822 34315 ft 434 kts 329°
2026-05-07 13:41 39.36586 23.76990 34700 ft 432 kts 329°
2026-05-07 13:42 39.38432 23.75719 34992 ft 430 kts 329°
2026-05-07 13:42 39.41063 23.73900 35408 ft 428 kts 329°
2026-05-07 13:42 39.43686 23.72090 35821 ft 425 kts 328°
2026-05-07 13:42 39.46290 23.70294 36077 ft 423 kts 328°
2026-05-07 13:43 39.48902 23.68491 36133 ft 426 kts 328°
2026-05-07 13:43 39.54156 23.64844 36135 ft 429 kts 328°
2026-05-07 13:44 39.58576 23.61768 36141 ft 430 kts 328°
2026-05-07 13:44 39.63860 23.58089 36129 ft 430 kts 328°
2026-05-07 13:45 39.69126 23.54418 36137 ft 431 kts 328°
2026-05-07 13:45 39.74420 23.50729 36133 ft 431 kts 328°
2026-05-07 13:46 39.79711 23.47028 36139 ft 432 kts 328°
2026-05-07 13:46 39.85009 23.43309 36135 ft 432 kts 328°
2026-05-07 13:47 39.90310 23.39589 36139 ft 433 kts 328°
2026-05-07 13:47 39.95611 23.35866 36134 ft 433 kts 328°
2026-05-07 13:48 40.00889 23.32155 36132 ft 434 kts 328°
2026-05-07 13:48 40.06216 23.28394 36130 ft 434 kts 328°
2026-05-07 13:49 40.11533 23.24631 36127 ft 434 kts 328°
2026-05-07 13:49 40.16823 23.20882 36128 ft 435 kts 328°
2026-05-07 13:50 40.22152 23.17103 36127 ft 436 kts 328°
2026-05-07 13:50 40.27499 23.13314 36126 ft 437 kts 328°
2026-05-07 13:51 40.31957 23.10147 36124 ft 437 kts 328°
2026-05-07 13:51 40.37313 23.06332 36122 ft 438 kts 328°
2026-05-07 13:52 40.42673 23.02495 36119 ft 439 kts 328°
2026-05-07 13:52 40.48000 22.98683 36117 ft 439 kts 328°
2026-05-07 13:53 40.53367 22.94843 36116 ft 439 kts 328°
2026-05-07 13:53 40.58747 22.90984 36118 ft 440 kts 328°
2026-05-07 13:54 40.64129 22.87109 36125 ft 441 kts 327°
2026-05-07 13:54 40.69510 22.83225 36128 ft 441 kts 327°
2026-05-07 13:55 40.74896 22.79335 36129 ft 441 kts 327°
2026-05-07 13:55 40.80262 22.75457 36140 ft 442 kts 327°
2026-05-07 13:56 40.85656 22.71548 36143 ft 443 kts 327°
2026-05-07 13:56 40.91056 22.67616 36144 ft 443 kts 327°
2026-05-07 13:57 40.96457 22.63687 36143 ft 443 kts 327°
2026-05-07 13:57 41.01867 22.59745 36144 ft 444 kts 327°
2026-05-07 13:58 41.07282 22.55791 36149 ft 445 kts 327°
2026-05-07 13:58 41.12679 22.51757 36147 ft 443 kts 322°
2026-05-07 13:59 41.17493 22.46797 36146 ft 441 kts 317°
2026-05-07 13:59 41.22280 22.41693 36148 ft 441 kts 317°
2026-05-07 14:00 41.27067 22.36579 36151 ft 441 kts 317°
2026-05-07 14:00 41.31853 22.31455 36145 ft 441 kts 317°
2026-05-07 14:01 41.36641 22.26304 36143 ft 441 kts 317°
2026-05-07 14:01 41.41397 22.21191 36141 ft 441 kts 317°
2026-05-07 14:02 41.46191 22.16041 36141 ft 442 kts 317°
2026-05-07 14:02 41.50978 22.10882 36141 ft 442 kts 317°
2026-05-07 14:03 41.55750 22.05712 36148 ft 442 kts 317°
2026-05-07 14:03 41.60501 22.00559 36144 ft 441 kts 317°
2026-05-07 14:04 41.65264 21.95387 36146 ft 441 kts 316°
2026-05-07 14:04 41.70024 21.90209 36144 ft 440 kts 316°
2026-05-07 14:05 41.74789 21.85021 36145 ft 440 kts 316°
2026-05-07 14:05 41.79511 21.79870 36141 ft 440 kts 316°
2026-05-07 14:06 41.84268 21.74680 36143 ft 440 kts 316°
2026-05-07 14:06 41.89000 21.69479 36140 ft 439 kts 316°
2026-05-07 14:07 41.93733 21.64266 36138 ft 439 kts 316°
2026-05-07 14:07 41.98433 21.59089 36136 ft 438 kts 316°
2026-05-07 14:08 42.03148 21.53889 36135 ft 438 kts 316°
2026-05-07 14:08 42.07855 21.48681 36140 ft 437 kts 316°
2026-05-07 14:09 42.12558 21.43479 36139 ft 437 kts 316°
2026-05-07 14:09 42.17037 21.38010 36138 ft 431 kts 306°
2026-05-07 14:10 42.20909 21.31847 36141 ft 431 kts 306°
2026-05-07 14:10 42.24781 21.25711 36138 ft 431 kts 307°
2026-05-07 14:11 42.28664 21.19555 36132 ft 431 kts 306°
2026-05-07 14:11 42.32551 21.13366 36135 ft 431 kts 306°
2026-05-07 14:12 42.36430 21.07171 36130 ft 430 kts 306°
2026-05-07 14:12 42.40281 21.01012 36123 ft 430 kts 306°
2026-05-07 14:13 42.44158 20.94794 36118 ft 431 kts 306°
2026-05-07 14:13 42.48024 20.88583 36115 ft 431 kts 306°
2026-05-07 14:14 42.51869 20.82391 36121 ft 432 kts 306°
2026-05-07 14:14 42.55741 20.76149 36130 ft 433 kts 306°
2026-05-07 14:15 42.59616 20.69891 36112 ft 431 kts 306°
2026-05-07 14:15 42.63469 20.63646 36105 ft 431 kts 306°
2026-05-07 14:16 42.67314 20.57385 36099 ft 431 kts 306°
2026-05-07 14:16 42.71144 20.51153 36101 ft 431 kts 306°
2026-05-07 14:17 42.74994 20.44882 36103 ft 431 kts 306°
2026-05-07 14:17 42.78831 20.38620 36102 ft 431 kts 306°
2026-05-07 14:18 42.82665 20.32340 36098 ft 430 kts 306°
2026-05-07 14:18 42.86616 20.26179 36102 ft 432 kts 309°
2026-05-07 14:19 42.90764 20.20304 36098 ft 432 kts 310°
2026-05-07 14:19 42.94960 20.14415 36095 ft 431 kts 310°
2026-05-07 14:20 42.99094 20.08467 36095 ft 431 kts 309°
2026-05-07 14:20 43.03181 20.02483 36087 ft 430 kts 309°
2026-05-07 14:21 43.07234 19.96545 36088 ft 429 kts 309°
2026-05-07 14:21 43.11313 19.90579 36088 ft 429 kts 309°
2026-05-07 14:22 43.15393 19.84616 36084 ft 428 kts 309°
2026-05-07 14:22 43.19460 19.78659 36077 ft 428 kts 309°
2026-05-07 14:23 43.23519 19.72695 36069 ft 428 kts 309°
2026-05-07 14:23 43.27574 19.66708 36069 ft 428 kts 309°
2026-05-07 14:24 43.31611 19.60746 36071 ft 428 kts 309°
2026-05-07 14:24 43.35658 19.54756 36066 ft 427 kts 309°
2026-05-07 14:25 43.39712 19.48757 36063 ft 427 kts 309°
2026-05-07 14:25 43.43726 19.42795 36062 ft 427 kts 309°
2026-05-07 14:26 43.47773 19.36770 36063 ft 427 kts 309°
2026-05-07 14:26 43.51798 19.30761 36050 ft 427 kts 309°
2026-05-07 14:27 43.55824 19.24735 36058 ft 427 kts 309°
2026-05-07 14:27 43.59860 19.18696 36050 ft 427 kts 309°
2026-05-07 14:28 43.63852 19.12694 36051 ft 427 kts 309°
2026-05-07 14:28 43.67873 19.06624 36053 ft 427 kts 308°
2026-05-07 14:29 43.71886 19.00577 36055 ft 427 kts 309°
2026-05-07 14:29 43.75900 18.94511 36062 ft 427 kts 308°
2026-05-07 14:30 43.79910 18.88443 36060 ft 427 kts 308°
2026-05-07 14:30 43.83248 18.83392 36057 ft 427 kts 308°
2026-05-07 14:31 43.87909 18.76308 36061 ft 427 kts 308°
2026-05-07 14:31 43.91263 18.71194 36066 ft 427 kts 308°
2026-05-07 14:32 43.95252 18.65100 36067 ft 428 kts 308°
2026-05-07 14:32 43.99258 18.58965 36070 ft 428 kts 308°
2026-05-07 14:33 44.03261 18.52826 36067 ft 428 kts 308°
2026-05-07 14:33 44.07265 18.46683 36067 ft 429 kts 308°
2026-05-07 14:34 44.11246 18.40552 36067 ft 429 kts 307°
2026-05-07 14:34 44.15242 18.34366 36059 ft 430 kts 308°
2026-05-07 14:35 44.19253 18.28168 36058 ft 430 kts 307°
2026-05-07 14:35 44.23234 18.21990 36055 ft 430 kts 307°
2026-05-07 14:36 44.27232 18.15768 36053 ft 430 kts 307°
2026-05-07 14:36 44.31235 18.09544 36055 ft 430 kts 307°
2026-05-07 14:37 44.35239 18.03305 36056 ft 431 kts 307°
2026-05-07 14:37 44.41234 17.93932 36051 ft 431 kts 307°
2026-05-07 14:38 44.45222 17.87677 36053 ft 431 kts 307°
2026-05-07 14:38 44.49189 17.81431 36055 ft 431 kts 307°
2026-05-07 14:39 44.53182 17.75123 36059 ft 431 kts 307°
2026-05-07 14:39 44.57169 17.68817 36059 ft 431 kts 307°
2026-05-07 14:40 44.61131 17.62552 36060 ft 431 kts 307°
2026-05-07 14:40 44.65113 17.56229 36058 ft 431 kts 307°
2026-05-07 14:41 44.69084 17.49913 36059 ft 431 kts 306°
2026-05-07 14:41 44.73051 17.43575 36055 ft 431 kts 306°
2026-05-07 14:42 44.77028 17.37230 36045 ft 431 kts 306°
2026-05-07 14:42 44.78990 17.34096 35872 ft 431 kts 306°
2026-05-07 14:42 44.80971 17.30924 35625 ft 431 kts 306°
2026-05-07 14:43 44.82946 17.27750 35365 ft 431 kts 306°
2026-05-07 14:43 44.84927 17.24562 34666 ft 433 kts 306°
2026-05-07 14:43 44.86919 17.21357 33866 ft 436 kts 306°
2026-05-07 14:43 44.88927 17.18123 32948 ft 440 kts 306°
2026-05-07 14:44 44.90948 17.14866 32093 ft 442 kts 305°
2026-05-07 14:44 44.92980 17.11590 31184 ft 446 kts 305°
2026-05-07 14:44 44.95034 17.08274 30239 ft 449 kts 305°
2026-05-07 14:44 44.97101 17.04930 29230 ft 451 kts 305°
2026-05-07 14:45 44.99149 17.01634 28770 ft 441 kts 305°
2026-05-07 14:45 45.01144 16.98427 28123 ft 436 kts 304°
2026-05-07 14:45 45.03141 16.95220 27486 ft 432 kts 305°
2026-05-07 14:45 45.04450 16.93115 27068 ft 429 kts 305°
2026-05-07 14:46 45.11071 16.82394 24970 ft 419 kts 306°
2026-05-07 14:46 45.12982 16.79288 24367 ft 416 kts 306°
2026-05-07 14:47 45.14886 16.76187 23762 ft 414 kts 306°
2026-05-07 14:47 45.16769 16.73118 23104 ft 412 kts 306°
2026-05-07 14:47 45.18640 16.70066 22541 ft 407 kts 306°
2026-05-07 14:47 45.20492 16.67052 21980 ft 403 kts 306°
2026-05-07 14:48 45.22371 16.64121 21444 ft 401 kts 308°
2026-05-07 14:48 45.24283 16.61261 20908 ft 398 kts 309°
2026-05-07 14:48 45.26207 16.58440 20398 ft 395 kts 309°
2026-05-07 14:48 45.28097 16.55680 19895 ft 393 kts 309°
2026-05-07 14:49 45.29994 16.52893 19391 ft 391 kts 309°
2026-05-07 14:49 45.31870 16.50107 18887 ft 389 kts 309°
2026-05-07 14:49 45.33734 16.47316 18366 ft 387 kts 308°
2026-05-07 14:49 45.35581 16.44541 17775 ft 384 kts 309°
2026-05-07 14:50 45.37419 16.41772 16904 ft 389 kts 309°
2026-05-07 14:50 45.39280 16.38963 16294 ft 388 kts 309°
2026-05-07 14:50 45.41105 16.36214 16092 ft 374 kts 309°
2026-05-07 14:50 45.42860 16.33578 16009 ft 357 kts 309°
2026-05-07 14:51 45.44525 16.31089 16022 ft 339 kts 309°
2026-05-07 14:51 45.46116 16.28705 15953 ft 325 kts 308°
2026-05-07 14:51 45.47620 16.26441 15823 ft 308 kts 308°
2026-05-07 14:51 45.49055 16.24273 15512 ft 295 kts 307°
2026-05-07 14:52 45.50444 16.22161 15024 ft 291 kts 307°
2026-05-07 14:52 45.51825 16.20052 14737 ft 289 kts 307°
2026-05-07 14:52 45.53195 16.17960 14443 ft 287 kts 307°
2026-05-07 14:52 45.54553 16.15892 14149 ft 286 kts 308°
2026-05-07 14:53 45.55914 16.13822 13843 ft 284 kts 308°
2026-05-07 14:53 45.57402 16.11944 13524 ft 290 kts 326°
2026-05-07 14:53 45.59329 16.11168 13188 ft 299 kts 356°
2026-05-07 14:53 45.61375 16.11897 12827 ft 305 kts 28°
2026-05-07 14:54 45.63009 16.13877 12290 ft 313 kts 45°
2026-05-07 14:54 45.64510 16.16129 11754 ft 318 kts 46°
2026-05-07 14:54 45.65995 16.18432 11224 ft 312 kts 47°
2026-05-07 14:54 45.67447 16.20701 10709 ft 307 kts 46°
2026-05-07 14:55 45.68882 16.22933 10197 ft 302 kts 46°
2026-05-07 14:55 45.70298 16.25121 9669 ft 298 kts 46°
2026-05-07 14:55 45.71702 16.27276 9125 ft 294 kts 46°
2026-05-07 14:55 45.73089 16.29400 8579 ft 290 kts 46°
2026-05-07 14:56 45.73998 16.30792 8221 ft 288 kts 46°
2026-05-07 14:56 45.75816 16.33575 7521 ft 283 kts 46°
2026-05-07 14:56 45.77156 16.35630 7002 ft 280 kts 45°
2026-05-07 14:56 45.78481 16.37664 6487 ft 277 kts 45°
2026-05-07 14:57 45.79839 16.39590 5962 ft 272 kts 33°
2026-05-07 14:57 45.81548 16.40575 5431 ft 262 kts
2026-05-07 14:57 45.83302 16.40254 4908 ft 251 kts 333°
2026-05-07 14:57 45.84711 16.38876 4370 ft 243 kts 314°
2026-05-07 14:58 45.85920 16.37276 4050 ft 232 kts 314°
2026-05-07 14:58 45.87051 16.35780 4014 ft 214 kts 314°
2026-05-07 14:58 45.87994 16.34165 4016 ft 207 kts 296°
2026-05-07 14:58 45.88476 16.32384 4047 ft 178 kts 279°
2026-05-07 14:59 45.88567 16.30727 4012 ft 157 kts 264°
2026-05-07 14:59 45.88371 16.29235 4014 ft 150 kts 251°
2026-05-07 14:59 45.87958 16.27934 3936 ft 140 kts 238°
2026-05-07 14:59 45.87368 16.26851 3834 ft 137 kts 226°
2026-05-07 15:00 45.86719 16.25858 3670 ft 136 kts 227°
2026-05-07 15:00 45.86075 16.24872 3502 ft 135 kts 226°
2026-05-07 15:00 45.85431 16.23885 3308 ft 136 kts 227°
2026-05-07 15:00 45.84790 16.22905 3145 ft 135 kts 227°
2026-05-07 15:01 45.84151 16.21926 2955 ft 136 kts 226°
2026-05-07 15:01 45.83715 16.21259 2830 ft 135 kts 226°
2026-05-07 15:01 45.83075 16.20280 2654 ft 133 kts 225°
2026-05-07 15:01 45.82437 16.19303 2472 ft 134 kts 226°
2026-05-07 15:02 45.81799 16.18329 2293 ft 133 kts 225°
2026-05-07 15:02 45.81165 16.17360 2110 ft 133 kts 226°
2026-05-07 15:02 45.80527 16.16385 1940 ft 134 kts 226°
2026-05-07 15:02 45.79894 16.15419 1757 ft 133 kts 225°
2026-05-07 15:03 45.79260 16.14451 1583 ft 133 kts 223°
2026-05-07 15:03 45.78627 16.13485 1384 ft 133 kts 224°
2026-05-07 15:03 45.77998 16.12525 1199 ft 132 kts 224°
2026-05-07 15:03 45.77378 16.11579 1026 ft 133 kts 223°
2026-05-07 15:04 45.76751 16.10624 842 ft 131 kts 225°
2026-05-07 15:04 45.76121 16.09665 676 ft 133 kts 224°
2026-05-07 15:04 45.75489 16.08708 501 ft 131 kts 223°
2026-05-07 15:04 45.74871 16.07760 366 ft 126 kts 224°
2026-05-07 15:05 45.74327 16.06970 360 ft 97 kts 234°
2026-05-07 15:05 45.73981 16.06430 380 ft 32 kts 230°
2026-05-07 15:05 45.73880 16.06277 364 ft 19 kts 205°
2026-05-07 15:05 45.73784 16.06327 360 ft 14 kts 145°
2026-05-07 15:06 45.73752 16.06439 363 ft 12 kts 52°
2026-05-07 15:06 45.73801 16.06540 359 ft 13 kts 47°
2026-05-07 15:06 45.73876 16.06638 362 ft 16 kts 42°
2026-05-07 15:06 45.73958 16.06762 359 ft 18 kts 46°
2026-05-07 15:07 45.74053 16.06902 359 ft 21 kts 46°
2026-05-07 15:07 45.74154 16.07067 363 ft 23 kts 49°
2026-05-07 15:07 45.74275 16.07244 361 ft 26 kts 46°
2026-05-07 15:07 45.74407 16.07444 359 ft 29 kts 47°
2026-05-07 15:08 45.74534 16.07653 361 ft 22 kts 70°
2026-05-07 15:08 45.74450 16.07823 359 ft 23 kts 140°
2026-05-07 15:08 45.74329 16.07881 361 ft 16 kts 234°
2026-05-07 15:08 45.74296 16.07815 364 ft 8 kts 219°
2026-05-07 15:09 45.74236 16.07838 361 ft 12 kts 142°
2026-05-07 15:09 45.74207 16.07879 359 ft 0 kts 136°